DW7259 Weather Reports


Display with metric or nautical units.
time (UTC)temp
F
wind
direction
speed
MPH
gust
MPH
rain 1hr
in
rain 24hr
in
rain mn
in
humidity
%
barometer
mb
20260509124558 49 172 0.0 0.0 0.00 0.00 0.00 66 1009.7
20260509123054 49 172 0.0 0.0 0.00 0.00 0.00 64 1009.7
20260509121553 49 172 0.0 0.0 0.00 0.00 0.00 65 1009.5
20260509120053 50 172 0.0 0.0 0.00 0.00 0.00 63 1009.6
20260509114550 50 172 0.0 0.0 0.00 0.00 0.00 63 1009.4
20260509113045 51 172 0.0 0.0 0.00 0.00 0.00 61 1009.5
20260509111543 52 172 0.0 0.0 0.00 0.00 0.00 61 1009.3
20260509110040 52 172 0.0 1.0 0.00 0.00 0.00 59 1009.2
20260509104558 53 172 0.0 0.0 0.00 0.00 0.00 59 1009.4
20260509103040 53 172 0.0 2.0 0.00 0.00 0.00 60 1009.3
20260509101539 53 172 0.0 0.0 0.00 0.00 0.00 61 1009.3
20260509100035 53 172 0.0 1.0 0.00 0.00 0.00 62 1009.3
20260509094535 54 172 0.0 0.0 0.00 0.00 0.00 61 1009.3
20260509093031 55 172 0.0 0.0 0.00 0.00 0.00 59 1009.2
20260509091530 55 172 0.0 1.0 0.00 0.00 0.00 58 1009.1
20260509090038 55 172 0.0 2.0 0.00 0.00 0.00 57 1009.0
20260509084526 56 172 0.0 0.0 0.00 0.00 0.00 56 1009.1
20260509083023 56 172 0.0 0.0 0.00 0.00 0.00 56 1009.0
20260509081525 56 172 0.0 2.0 0.00 0.00 0.00 57 1009.1
20260509080020 57 172 0.0 1.0 0.00 0.00 0.00 54 1009.2
20260509074516 58 172 0.0 1.0 0.00 0.00 0.00 53 1009.2
20260509073030 59 172 0.0 1.0 0.00 0.00 0.00 52 1009.1
20260509071509 60 172 0.0 2.0 0.00 0.00 0.00 50 1009.0
20260509070009 61 172 0.0 4.0 0.00 0.00 0.00 47 1009.1
20260509064505 61 172 0.0 5.0 0.00 0.00 0.00 46 1009.0
20260509063004 60 172 0.0 1.0 0.00 0.00 0.00 48 1009.0
20260509061505 60 172 0.0 1.0 0.00 0.00 0.00 45 1009.1
20260509060004 61 172 0.0 0.0 0.00 0.00 0.00 45 1009.1
20260509054503 62 172 0.0 1.0 0.00 0.00 0.00 46 1009.1
20260509053002 62 172 0.0 2.0 0.00 0.00 0.00 41 1008.9
20260509051504 63 172 0.0 1.0 0.00 0.00 0.00 41 1008.7
20260509050006 65 172 0.0 0.0 0.00 0.00 0.00 40 1008.5
20260509044501 65 172 0.0 2.0 0.00 0.00 0.00 37 1008.3
20260509043100 66 172 0.0 2.0 0.00 0.00 0.00 38 1008.1
20260509041600 66 172 0.0 1.0 0.00 0.00 0.00 38 1008.0
20260509034559 67 172 0.0 1.0 0.00 0.00 0.00 35 1007.9
20260509033058 68 172 0.0 1.0 0.00 0.00 0.00 33 1007.8
20260509031557 69 172 0.0 1.0 0.00 0.00 0.00 30 1007.7
20260509030058 70 172 0.0 2.0 0.00 0.00 0.00 29 1007.6
20260509024601 71 172 0.0 4.0 0.00 0.00 0.00 29 1007.5
20260509023055 72 172 0.0 6.0 0.00 0.00 0.00 28 1007.4
20260509021555 73 172 0.0 7.0 0.00 0.00 0.00 26 1007.2
20260509020058 74 172 0.0 2.0 0.00 0.00 0.00 22 1007.2
20260509014555 74 172 0.0 6.0 0.00 0.00 0.00 21 1007.2
20260509013057 75 172 0.0 8.0 0.00 0.00 0.00 21 1007.1
20260509011554 76 172 0.0 6.0 0.00 0.00 0.00 21 1007.1
20260509010052 76 172 1.0 9.0 0.00 0.00 0.00 19 1007.1
20260509004604 76 172 0.0 6.0 0.00 0.00 0.00 17 1007.2
20260509003051 77 172 4.0 8.0 0.00 0.00 0.00 16 1007.2
20260509001550 77 172 2.0 9.0 0.00 0.00 0.00 15 1007.3
20260509000050 78 172 1.0 7.0 0.00 0.00 0.00 15 1007.2
20260508234554 78 172 1.0 8.0 0.00 0.00 0.00 15 1007.1
20260508233052 79 172 0.0 3.0 0.00 0.00 0.00 15 1007.2
20260508231548 79 172 1.0 8.0 0.00 0.00 0.00 14 1007.3
20260508230046 80 172 1.0 7.0 0.00 0.00 0.00 14 1007.5
20260508224545 82 172 0.0 7.0 0.00 0.00 0.00 13 1007.6
20260508223044 83 172 0.0 6.0 0.00 0.00 0.00 13 1007.7
20260508221541 82 172 1.0 9.0 0.00 0.00 0.00 18 1008.0
20260508220039 83 172 0.0 3.0 0.00 0.00 0.00 13 1008.0
20260508214538 82 172 0.0 7.0 0.00 0.00 0.00 14 1008.1
20260508213035 81 172 2.0 10.0 0.00 0.00 0.00 15 1008.3
20260508211533 82 172 0.0 8.0 0.00 0.00 0.00 14 1008.5
20260508210033 81 172 5.0 10.0 0.00 0.00 0.00 15 1008.5
20260508204535 81 172 1.0 12.0 0.00 0.00 0.00 16 1008.6
20260508203033 81 172 2.0 9.0 0.00 0.00 0.00 16 1008.7
20260508201528 80 172 2.0 11.0 0.00 0.00 0.00 17 1008.8
20260508200024 79 172 1.0 8.0 0.00 0.00 0.00 16 1009.1
20260508194522 78 172 2.0 6.0 0.00 0.00 0.00 15 1009.4
20260508193021 77 172 0.0 8.0 0.00 0.00 0.00 16 1009.6
20260508191524 76 172 3.0 6.0 0.00 0.00 0.00 16 1009.7
20260508190015 74 172 1.0 8.0 0.00 0.00 0.00 17 1009.9
20260508184513 73 172 0.0 5.0 0.00 0.00 0.00 18 1010.2
20260508183007 73 172 2.0 6.0 0.00 0.00 0.00 19 1010.4
20260508181503 71 172 0.0 5.0 0.00 0.00 0.00 20 1010.6
20260508180059 70 172 2.0 7.0 0.00 0.00 0.00 18 1010.5
20260508174607 69 172 2.0 5.0 0.00 0.00 0.00 25 1010.7
20260508173052 68 172 0.0 5.0 0.00 0.00 0.00 24 1010.7
20260508171548 67 172 3.0 7.0 0.00 0.00 0.00 26 1010.8
20260508170042 66 172 1.0 5.0 0.00 0.00 0.00 28 1010.8
20260508164538 65 172 2.0 5.0 0.00 0.00 0.00 27 1010.9
20260508163035 64 172 1.0 5.0 0.00 0.00 0.00 29 1010.8
20260508161529 62 172 0.0 2.0 0.00 0.00 0.00 38 1011.1
20260508160024 60 172 0.0 4.0 0.00 0.00 0.00 42 1011.2
20260508154520 59 172 0.0 3.0 0.00 0.00 0.00 43 1011.2
20260508153015 56 172 0.0 3.0 0.00 0.00 0.00 45 1011.2
20260508151516 55 172 0.0 2.0 0.00 0.00 0.00 45 1011.2
20260508150012 54 172 0.0 4.0 0.00 0.00 0.00 48 1011.2
20260508144506 51 172 1.0 3.0 0.00 0.00 0.00 52 1011.0
20260508143004 49 172 0.0 0.0 0.00 0.00 0.00 56 1011.0
20260508141506 47 172 0.0 0.0 0.00 0.00 0.00 56 1011.0
20260508140002 46 172 0.0 0.0 0.00 0.00 0.00 60 1010.8
20260508134619 45 172 0.0 1.0 0.00 0.00 0.00 59 1010.7
20260508133102 45 172 0.0 0.0 0.00 0.00 0.00 60 1010.5
20260508131557 45 172 0.0 0.0 0.00 0.00 0.00 57 1010.4
20260508130053 45 172 0.0 2.0 0.00 0.00 0.00 57 1010.1